Regional Weather Roundup
Issued by NWS Upton, NY

Current Version | Previous Version | Text Only | Print | Product List | Glossary On
Versions: 1 2 3 4 5 6 7 8 9 10 11 12 13 14 15 16 17 18 19 20 21 22 23 24 25 26 27 28 29 30 31 32 33 34 35 36 37 38 39 40 41 42 43 44 45 46 47 48
000
ASUS41 KOKX 210905
RWROKX

REGIONAL WEATHER ROUNDUP
NATIONAL WEATHER SERVICE NEW YORK NY
400 AM EST SUN DEC 21 2014

NOTE: "FAIR" INDICATES FEW OR NO CLOUDS BELOW 12,000 FEET WITH NO
SIGNIFICANT WEATHER AND/OR OBSTRUCTIONS TO VISIBILITY.

NYZ071-072-176-178-NJZ106-104-211000-
NEW YORK CITY METRO AREA


CITY           SKY/WX    TMP DP  RH WIND       PRES   REMARKS
CENTRAL PARK   CLOUDY    31  22  69 NW3       30.30S
LAGUARDIA APRT CLOUDY    32  23  69 NW6       30.28S WCI  26
KENNEDY INTL   CLOUDY    34  23  64 N5        30.29S WCI  30
NEWARK/LIBERTY CLOUDY    32  23  69 W6        30.29S WCI  26
BRNX BOT. GARD   N/A    N/A N/A N/A W3        30.28F
TETERBORO      CLOUDY    31  24  75 N6        30.28S WCI  25
$$

NYZ177-179-078>081-211000-
LONG ISLAND NEW YORK

CITY           SKY/WX    TMP DP  RH WIND       PRES   REMARKS
FARMINGDALE    CLOUDY    33  23  66 NW5       30.27S WCI  29
ISLIP          CLOUDY    33  25  72 NW6       30.25S WCI  28
SHIRLEY        CLOUDY    33  28  81 NW5       30.27S WCI  29
WESTHAMPTON    CLOUDY    33  28  81 CALM      30.27S
MONTAUK POINT    N/A     39  35  86 N10       30.23F WCI  32
$$

NYZ052-065-067-211000-
HUDSON VALLEY

CITY           SKY/WX    TMP DP  RH WIND       PRES   REMARKS
WHITE PLAINS   MOCLDY    29  24  82 NW6       30.25S WCI  23
NEWBURGH       CLOUDY    27  25  93 MISG      30.28  FOG
MONTGOMERY     CLOUDY    28  24  85 N3        30.28R
POUGHKEEPSIE   CLOUDY    29  24  82 N3        30.29R
ALBANY         FLURRIES  28  20  71 N5        30.31S WCI  23
$$

NJZ001-105-106-008-010-013-015-019>022-104-211000-
NEW JERSEY

CITY           SKY/WX    TMP DP  RH WIND       PRES   REMARKS
NEWARK/LIBERTY CLOUDY    32  23  69 W6        30.29S WCI  26
TETERBORO      CLOUDY    31  24  75 N6        30.28S WCI  25
CALDWELL       CLOUDY    30  25  81 CALM      30.29S
MORRISTOWN     CLOUDY    32  25  74 CALM      30.28S
SOMERVILLE     CLOUDY    32  22  66 NW3       30.28S
SUSSEX         CLOUDY    28  26  92 CALM      30.27S FOG
ANDOVER          N/A     28  23  81 CALM      30.27S
TRENTON        CLOUDY    30  22  72 W3        30.28F
MILLVILLE      CLOUDY    28  24  85 CALM      30.30S
ATLANTIC CITY  CLOUDY    28  22  78 W3        30.30R
WRIGHTSTOWN    CLOUDY    30  23  74 W3        30.27S
TOMS RIVER     CLOUDY    28  23  80 NW5       30.29S WCI  23
BELMAR         CLOUDY    30  19  64 W7        30.27S WCI  23
$$

PAZ047>061-062-071-211000-
EASTERN PENNSYLVANIA

CITY           SKY/WX    TMP DP  RH WIND       PRES   REMARKS
PHILADELPHIA   CLOUDY    33  23  66 CALM      30.31S
ALLENTOWN      CLOUDY    31  21  66 CALM      30.28F
SCRANTON       CLOUDY    29  19  66 NW5       30.25S WCI  24
$$

CTZ002-004>006-009-010-012-RIZ004-006-007-MAZ004-011-015-211000-
SOUTHERN NEW ENGLAND
 IN CT

CITY           SKY/WX    TMP DP  RH WIND       PRES   REMARKS
BRADLEY INTL   LGT SNOW  31  28  89 N6        30.26F FOG     WCI  25
HARTFORD       LGT SNOW  31  29  92 VRB7      30.27F FOG     WCI  24
DANBURY        CLOUDY    29  24  82 CALM      30.27R
WTRBRY/OXFORD  CLOUDY    30  23  74 N3        30.24S
BRIDGEPORT     CLOUDY    32  29  88 N5        30.28R WCI  27
MERIDEN        CLOUDY    32  29  88 N3        30.27S
NEW HAVEN      CLOUDY    35  28  75 N8        30.26F WCI  29
CHESTER        CLOUDY    32  30  93 N6        30.24F WCI  26
GROTON         CLOUDY    33  30  88 N8        30.24F WCI  26
WILLIMANTIC    CLOUDY    33  27  78 N5        30.26F WCI  29

 IN RI

CITY           SKY/WX    TMP DP  RH WIND       PRES   REMARKS
PROVIDENCE     CLOUDY    32  30  92 N8        30.26F WCI  25
BLOCK ISLAND   CLOUDY    37  34  87 NE14G21   30.22S WCI  29
WESTERLY       CLOUDY    35  32  88 N7        30.25F WCI  29

 IN MA

CITY           SKY/WX    TMP DP  RH WIND       PRES   REMARKS
BOSTON         FLURRIES  35  30  82 NE14      30.28F WCI  26
WORCESTER      CLOUDY    27  24  89 NE7       30.23F WCI  19
WESTFIELD      LGT SNOW  31  28  89 N6        30.27S FOG     WCI  25
PROVINCETOWN   CLOUDY    37  32  81 NE15G24   30.26S WCI  28
NANTUCKET      CLOUDY    40  32  73 NE6       30.23S
$$

ANZ330-335-338-340-345-350-353-355-211000-
COASTAL MARINE OBSERVATIONS


STATION/POSITION TIME  SKY/WX   TEMP    WIND        PRES    VSBY  WAVE
                                AIR SEA DIR/SP/G                  HT/PER
                 (UTC)          (F)     (DEG/KT/KT) (MB)    (MI)  (FT/S)
NY HARB ENTRANCE 0900            35 46  310/ 10/ 12 1025.2          1/11
4S FIRE IS       0900               46                N/A           1/10
20S FIRE ISLAND  0800            37 49              1025.2          1/10
23SW MTP         0900                                 N/A           2/ 5
HUDSON CANYON    0900            40 54  310/ 10/ 14 1023.7          2/ 5
EXECUTION ROCKS  0900            33 41  340/  6/ 10   N/A
WESTERN LI SOUND 0900            32     330/  6/  8   N/A           0
CENTRAL LI SOUND 0800            34 44  360/  8/ 10   N/A           1
EASTERN LI SOUND NOT AVBL
ROBBINS REEF     0900            32        CALM     1024.4
$$


>>>>>>>>>>>>>>>>>>>>>>>>>>>> KEY <<<<<<<<<<<<<<<<<<<<<<<<<<<
>                                                          <
>     SKY/WX - SKY CONDITION/PRESENT WEATHER               <
>     TMP    - TEMPERATURE IN FAHRENHEIT                   <
>     DP     - DEWPOINT IN FAHRENHEIT                      <
>     RH     - RELATIVE HUMIDITY IN PERCENT                <
>     WIND   - DIRECTION AND SPEED IN MPH                  <
>     PRES   - MEAN SEA LEVEL PRESSURE IN INCHES OF HG     <
>     WCI    - WIND CHILL INDEX                            <
>     VSB    - VISIBILITY IN MILES                         <
>     HX     - HEAT INDEX                                  <
>     TC     - TEMPERATURE IN CELSIUS                      <
>     VRB    - VARIABLE WIND DIRECTION                     <
>                                                          <
>>>>>>>>>>>>>>>>>>>>>>>>>>>> KEY <<<<<<<<<<<<<<<<<<<<<<<<<<<




USA.gov is the U.S. government's official web portal to all federal, state and local government web resources and services.